Location: Unspecified
(0.0000°N, 0.0000°E)
Time: 23:46:57
(UTC+02:00)

Cosmos 1953 Rocket - Visible Passes

Search period start: 02 September 2015 00:00
Search period end: 12 September 2015 00:00
Orbit: 604 x 637 km, 82.5° (Epoch: 02 September)

Date Brightness Start Highest point End Pass type
(mag) Time Alt. Az. Time Alt. Az. Time Alt. Az.
02 Sep 4.7 20:42:01 10° NE 20:45:17 22° E 20:48:31 11° SE visible
02 Sep 6.5 22:20:43 10° WNW 22:23:06 14° W 22:25:12 10° SW visible
03 Sep 3.7 20:58:51 10° N 21:03:02 50° E 21:07:20 10° SSE visible
04 Sep 3.9 21:16:28 10° NNW 21:20:47 66° W 21:25:09 10° S visible
05 Sep 5.6 21:34:47 10° NW 21:38:34 28° W 21:42:17 10° SSW visible
06 Sep 6.8 21:54:30 10° WNW 21:56:25 12° W 21:58:01 10° WSW visible
07 Sep 3.6 20:32:04 10° N 20:36:21 58° E 20:40:43 10° SSE visible
08 Sep 4.2 20:49:47 10° NNW 20:54:05 58° W 20:58:25 10° S visible
09 Sep 6.0 21:08:14 10° NW 21:11:52 25° W 21:15:26 10° SSW visible
10 Sep 7.1 21:28:33 10° W 21:29:44 11° W 21:30:34 10° WSW visible
